Regional Weather Roundup
Issued by NWS

Home | Current Version | Previous Version | Text Only | Print | Product List | Glossary On
Versions: 1 2 3 4 5 6 7 8 9 10 11 12 13 14 15 16 17 18 19 20 21 22 23 24 25 26 27 28 29 30 31 32 33 34 35 36 37 38 39 40 41 42 43 44 45 46 47 48 49 50
000
ASUS46 KSEW 270610
RWRWA

WASHINGTON REGIONAL WEATHER ROUNDUP
NATIONAL WEATHER SERVICE SEATTLE WA
1100 PM PDT WED JUL 26 2017

NOTE:"FAIR" INDICATES FEW OR NO CLOUDS BELOW 12,000 FEET WITH NO
SIGNIFICANT WEATHER AND/OR OBSTRUCTIONS TO VISIBILITY.

WAZ507-509-555>559-270700-
SEATTLE, TACOMA, EVERETT, AND VICINITY

CITY           SKY/WX    TMP DP  RH WIND       PRES   REMARKS
EVERETT        CLEAR     58  54  86 N8        30.07R
6HR MIN TEMP:  58; 6HR MAX TEMP:  71;

BOEING FIELD   CLEAR     69  57  65 N5        30.04R
6HR MIN TEMP:  69; 6HR MAX TEMP:  83;

RENTON         CLEAR     71  59  65 N10       30.03R
6HR MIN TEMP:  71; 6HR MAX TEMP:  84;

SEATAC AIRPORT PTCLDY    65  56  72 W6        30.05R
6HR MIN TEMP:  65; 6HR MAX TEMP:  84;

JBLM-MCCHORD   CLEAR     65  53  67 VRB3      30.07R
PUYALLUP       FAIR      63  59  88 CALM      30.07R
BREMERTON      CLEAR     62  56  80 CALM      30.06R
6HR MIN TEMP:  61; 6HR MAX TEMP:  85;

JBLM-FT LEWIS  CLEAR     64  58  83 W7        30.06R
6HR MIN TEMP:  64; 6HR MAX TEMP:  82;

TACOMA NARROWS CLEAR     62  56  80 SW6       30.07R
6HR MIN TEMP:  62; 6HR MAX TEMP:  81;

$$

WAZ001-503-506-510-514-515-270700-
NORTH INTERIOR

CITY           SKY/WX    TMP DP  RH WIND       PRES   REMARKS
BELLINGHAM     MOCLDY    62  54  74 S12       30.01R
6HR MIN TEMP:  62; 6HR MAX TEMP:  69;

FRIDAY HARBOR  PTCLDY    56  53  90 VRB6      30.02R
6HR MIN TEMP:  56; 6HR MAX TEMP:  68;

EASTSOUND      PTCLDY    61  54  77 S10       30.00S
PORT ANGELES   CLEAR     56  53  90 W14G22    30.08R
6HR MIN TEMP:  56; 6HR MAX TEMP:  65;

EDIZ HOOK      FAIR      56  51  82 W21G29    30.06S
6HR MIN TEMP:  56; 6HR MAX TEMP:  60;

PORT TOWNSEND  FAIR      59  54  82 NW6G13    30.06R
NAS WHIDBEY    PTCLDY    57  50  77 SW6       30.09R
6HR MIN TEMP:  57; 6HR MAX TEMP:  66;

ARLINGTON      CLEAR     58  53  84 NW8       30.07R
6HR MIN TEMP:  58; 6HR MAX TEMP:  75;

BURLINGTON     CLEAR     57  54  88 SE6       30.06R
$$

WAZ020-022-039-040-504-511-512-270700-
SOUTHWEST INTERIOR

CITY           SKY/WX    TMP DP  RH WIND       PRES   REMARKS
SHELTON        PTCLDY    59  55  87 SW15G22   30.05R
6HR MIN TEMP:  59; 6HR MAX TEMP:  82;

OLYMPIA        CLEAR     59  55  87 S6        30.07R
6HR MIN TEMP:  59; 6HR MAX TEMP:  84;

CHEHALIS       FAIR      59  57  94 SW5       30.09R
KELSO          CLOUDY    62  57  83 NW6       30.10R
6HR MIN TEMP:  62; 6HR MAX TEMP:  78;

VANCOUVER      CLEAR     67  58  72 NW8       30.05R
6HR MIN TEMP:  67; 6HR MAX TEMP:  86;

SCAPPOOSE, OR  CLEAR     64  55  72 NW6       30.05R
6HR MIN TEMP:  64; 6HR MAX TEMP:  86;

PORTLAND, OR   CLEAR     68  57  68 NW10      30.06R
6HR MIN TEMP:  68; 6HR MAX TEMP:  86;

$$

WAZ021-516-517-270700-
WASHINGTON COAST

CITY           SKY/WX    TMP DP  RH WIND       PRES   REMARKS
FORKS          CLOUDY    57  53  86 CALM      30.12R
6HR MIN TEMP:  56; 6HR MAX TEMP:  64;

HOQUIAM        CLOUDY    58  54  86 W8        30.12R
6HR MIN TEMP:  58; 6HR MAX TEMP:  65;

ASTORIA, OR    CLOUDY    59  53  80 NW9       30.13R
6HR MIN TEMP:  59; 6HR MAX TEMP:  67;

$$

WAZ019-023-024-040-567>569-270700-
CASCADE MOUNTAINS AND COLUMBIA GORGE

CITY           SKY/WX    TMP DP  RH WIND       PRES   REMARKS
STAMPEDE PASS  CLEAR     56  50  80 VRB5      30.15S
6HR MIN TEMP:  56; 6HR MAX TEMP:  73;

TROUTDALE, OR  CLEAR     69  57  65 VRB6      30.05R
6HR MIN TEMP:  69; 6HR MAX TEMP:  88;

HOOD RIVER, OR CLEAR     70  54  56 W6        29.99R
THE DALLES, OR CLEAR     78  54  43 VRB5      29.93R
6HR MIN TEMP:  76; 6HR MAX TEMP:  93;

$$

WAZ026-027-041>044-520-521-270700-
EAST SLOPES

CITY           SKY/WX    TMP DP  RH WIND       PRES   REMARKS
OMAK           CLEAR     83  44  25 S8        29.87R
6HR MIN TEMP:  83; 6HR MAX TEMP:  98;

WENATCHEE      CLEAR     80  48  32 NW16      29.91R
6HR MIN TEMP:  80; 6HR MAX TEMP:  95;

ELLENSBURG     CLEAR     73  51  46 NW21G30   29.97R
6HR MIN TEMP:  73; 6HR MAX TEMP:  94;

YAKIMA         CLEAR     80  53  39 NW8       29.93R
6HR MIN TEMP:  80; 6HR MAX TEMP:  98;

SUNNYSIDE ARPT   N/A     66  58  75 CALM      29.88R
6HR MIN TEMP:  65; 6HR MAX TEMP:  93;

YAKIMA TC      FAIR      74  42  32 SE8       29.92R
6HR MIN TEMP:  74; 6HR MAX TEMP:  95;

$$

WAZ028-034-035-270700-
COLUMBIA BASIN

CITY           SKY/WX    TMP DP  RH WIND       PRES   REMARKS
EPHRATA        CLEAR     73  43  33 CALM      29.88S
6HR MIN TEMP:  73; 6HR MAX TEMP:  96;

MOSES LAKE     CLEAR     76  51  41 S5        29.88S
6HR MIN TEMP:  76; 6HR MAX TEMP:  96;

PASCO          PTCLDY    84  51  31 SW9       29.85S
6HR MIN TEMP:  84; 6HR MAX TEMP:  99;

RICHLAND ARPT  PTCLDY    85  51  30 SW7       29.86R
6HR MIN TEMP:  83; 6HR MAX TEMP: 100;

HERMISTON, OR  PTCLDY    81  53  37 SW14      29.89R
6HR MIN TEMP:  80; 6HR MAX TEMP:  96;

$$

WAZ036>038-270700-
NORTHEAST WASHINGTON

CITY           SKY/WX    TMP DP  RH WIND       PRES   REMARKS
SPOKANE GEIGER PTCLDY    80  41  24 S3        29.97S
6HR MIN TEMP:  79; 6HR MAX TEMP:  91;

SPOKANE FELTS  CLEAR     71  46  40 CALM      29.96R
6HR MIN TEMP:  71; 6HR MAX TEMP:  95;

FAIRCHILD AFB  PTCLDY    74  44  33 CALM      29.98R
6HR MIN TEMP:  72; 6HR MAX TEMP:  91;

COEURDALENE,ID PTCLDY    69  53  56 NE3       29.98S
6HR MIN TEMP:  69; 6HR MAX TEMP:  92;

DEER PARK      PTCLDY    65  43  44 S5        29.97R
6HR MIN TEMP:  64; 6HR MAX TEMP:  92;

$$

WAZ029>033-270700-
SOUTHEAST WASHINGTON

CITY           SKY/WX    TMP DP  RH WIND       PRES   REMARKS
PULLMAN        CLEAR     67  46  47 CALM      30.02R
6HR MIN TEMP:  67; 6HR MAX TEMP:  91;

LEWISTON, ID   CLEAR     78  41  26 S5        29.93R
6HR MIN TEMP:  78; 6HR MAX TEMP:  98;

WALLA WALLA    CLEAR     81  49  32 E9        29.91S
6HR MIN TEMP:  81; 6HR MAX TEMP:  98;

PENDLETON, OR  CLEAR     78  43  28 W10       29.94R
6HR MIN TEMP:  74; 6HR MAX TEMP:  95;

$$



USA.gov is the U.S. government's official web portal to all federal, state and local government web resources and services.